Regional Weather Roundup
Issued by NWS Grand Forks, ND

Home | Current Version | Previous Version | Text Only | Print | Product List | Glossary Off
Versions: 1 2 3 4 5 6 7 8 9 10 11 12 13 14 15 16 17 18 19 20 21 22 23 24 25 26 27 28 29 30 31 32 33 34 35 36 37 38 39 40 41 42 43 44 45 46 47 48 49 50

000
ASUS43 KFGF 200410
RWRFGF
PRAIRIE TO PINES  WEATHER ROUNDUP
NATIONAL WEATHER SERVICE EASTERN NORTH DAKOTA/GRAND FORKS ND
1100 PM CDT FRI SEP 19 2014

 **SATELLITE DATA USED TO AUGMENT SKY COVER AT AUTOMATED STATIONS**
 *****  WEATHER ACROSS EASTERN NORTH DAKOTA  *****

CITY           SKY/WX    TMP DP  RH WIND       PRES   REMARKS
GRAND FORKS    MOCLDY    62  54  74 N14       29.66R
GRAND FRKS AFB MOCLDY    62  56  81 N10       29.68R
GRAND FRKS NWS   N/A     61 N/A N/A N10         N/A
DEVILS LAKE    CLEAR     61  52  72 N7        29.73R
FARGO          MOCLDY    70  55  59 NW13      29.64R
WAHPETON ARPT  MOCLDY    68  54  60 W10       29.66R
$$

 ***** WEATHER ACROSS CENTRAL AND WESTERN NORTH DAKOTA  *****

CITY           SKY/WX    TMP DP  RH WIND       PRES   REMARKS
BISMARCK       PTCLDY    65  53  65 NW6       29.81R
MINOT          CLEAR     62  53  72 W12       29.78R
JAMESTOWN      MOCLDY    63  56  78 NW10      29.73R
MINOT AFB      PTCLDY    77  57  50 NW23      29.60R
GARRISON         N/A     53  50  89 NW8       29.81R
WILLISTON      MOCLDY    56  49  77 W7        29.83R
DICKINSON      CLEAR     56  48  74 W7        29.85R
HETTINGER      PTCLDY    53  47  79 W5        29.89R
$$

 *****  OTHER AIRPORT OBSERVATIONS IN OUR AREA  *****

CITY           SKY/WX    TMP DP  RH WIND       PRES   REMARKS
WALHALLA         N/A     57  55  94 NW12G20   29.71R
GRAFTON AIRPOR FAIR      59  54  82 N17       29.67R
VALLEY CITY AR FAIR      64  57  77 NW10      29.71R
CANDO          FAIR      54  52  94 N6        29.75R
CAVALIER APRT  FAIR      57  54  88 NW16      29.69R
GWINNER        CLEAR     70  54  56 W10       29.71R
SHEYENNE NWR     N/A     67  54  61 W7        29.95S
ROLLA          MOCLDY    54  54 100 N3        29.76R
 ***** THE ABOVE OBSERVATIONS ARE NON NWS ARE NOT QUALITY
       CONTROLLED AND MAY MIS-REPORT RAIN FOR SNOW...
$$

  *****  WEATHER ACROSS NORTHERN MINNESOTA  *****

CITY           SKY/WX    TMP DP  RH WIND       PRES   REMARKS
FLAG ISLAND    CLOUDY    59  57  94 NW15      29.58R
WARROAD        CLOUDY    61  57  88 NW9       29.61R
ROSEAU         MOCLDY    59  54  82 N8        29.61R
HALLOCK        CLOUDY    59  55  88 NW13      29.66R
THF RVR FALLS  MOCLDY    63  57  82 NW13G20   29.63R
BAUDETTE       CLOUDY    58  56  93 W3        29.57R
WASKISH        MOCLDY    63  61  94 CALM      29.58R
CROOKSTON      CLOUDY    63  57  82 N18       29.65R
STEPHEN NDAWN    N/A     61  57  88 N15         N/A
GREENBUSH NDAW   N/A     61  59  94 NW8         N/A
$$
  *****  WEATHER ACROSS CENTRAL AND WEST MINNESOTA  *****

CITY           SKY/WX    TMP DP  RH WIND       PRES   REMARKS
FOSSTON        PTCLDY    63  57  82 NW13G20   29.62R
BEMIDJI        PTCLDY    64  62  94 SW6       29.58R
PARK RAPIDS    PTCLDY    65  63  93 SW9       29.61F
ELBOW LAKE     FAIR      66  62  87 W12       29.65S
WADENA         PTCLDY    64  63  94 SW7       29.63S
DETROIT LAKES  PTCLDY    70  57  64 W10       29.65R
MOORHEAD       MOCLDY    72  55  56 NW14G20   29.65R
FERGUS FALLS   MOCLDY    66  61  82 W8        29.65R
MORRIS MN      CLEAR     66  63  88 W9        29.66S
STAPLES        CLEAR     63  63 100 SW6       29.63F
$$
  *****  WEATHER ELSEWHERE ACROSS MINNESOTA  *****

CITY           SKY/WX    TMP DP  RH WIND       PRES   REMARKS
DULUTH         MOCLDY    64  61  90 W12       29.63F FOG
INTRNTL FALLS  LGT RAIN  60  58  92 SE5       29.55F
ELY            CLOUDY    61  57  88 S5        29.60F
CLOQUET        CLOUDY    63  61  94 SW3       29.64F FOG
WHEATON        PTCLDY    66  61  82 SW8       29.68S
BRAINERD       FOG       59  59 100 SW6       29.63F VSB 3/4
HIBBING        CLOUDY    63  61  93 SW3       29.61F
ALEXANDRIA     CLEAR     66  63  90 SW8       29.67F
SAINT CLOUD    FOG       60  59  96 CALM      29.64F VSB 1/4
MINNEAPOLIS    PTCLDY    73  66  78 SW6       29.66F
$$

  *****  WEATHER ACROSS SOUTH DAKOTA  *****

CITY           SKY/WX    TMP DP  RH WIND       PRES   REMARKS
SIOUX FALLS    CLOUDY    72  65  78 NW6       29.73R
BROOKINGS      NOT AVBL
WATERTOWN      CLEAR     67  60  78 W8        29.73S
HURON          CLEAR     62  55  77 NW6       29.74S
SISSETON         N/A     72  54  53 W13       29.68R
ABERDEEN       CLOUDY    70  53  54 NW9       29.74R
MITCHELL       CLEAR     68  59  73 W5        29.75R
PIERRE         MOCLDY    72  52  49 NW13      29.80R
MOBRIDGE       MOCLDY    65  54  67 N6        29.79R
RAPID CITY     PTCLDY    67  48  50 NW8       29.96R
$$

  *****  SOME WEATHER IN NEARBY STATES *****

CITY           SKY/WX    TMP DP  RH WIND       PRES   REMARKS
GLASGOW MT     CLEAR     61  51  70 CALM      29.85R
GREAT FALLS MT CLEAR     56  40  55 SW8       30.02R
CHEYENNE WY    MOCLDY    68  41  37 NW3       30.11R
SCOTTSBLUFF NE PTCLDY    65  51  60 NW3       29.96R
OMAHA NE       PTCLDY    75  68  78 S17       29.81S
DES MOINES IA  PTCLDY    70  66  87 S16       29.83F
DAVENPORT IA   CLEAR     67  55  65 S18       29.92S
CHICAGO IL     PTCLDY    66  47  50 S14       29.95S
EAU CLAIRE WI  CLOUDY    68  62  81 SW10      29.71F
LA CROSSE WI   PTCLDY    70  59  68 S16G28    29.76F
$$

  *****  SOME NATIONAL WEATHER *****

CITY           SKY/WX    TMP DP  RH WIND       PRES   REMARKS
LA GUARDIA NY  PTCLDY    60  47  61 SE13      30.35F
RALEIGH NC     CLEAR     66  57  72 E8        30.25R
ATLANTA GA     PTCLDY    71  65  81 E12       30.15R
NEW ORLEANS LA CLEAR     79  67  66 E7        29.97R
OKLAHOMA CITY  PTCLDY    74  66  76 SE9       29.98S
ALBUQUERQUE NM PTCLDY    71  56  58 SE5       30.08R
SALT LAKE CITY PTCLDY    67  55  65 E3        30.06R
LOS ANGELES CA CLEAR     68  62  81 W9        29.88R
BOISE ID       CLEAR     69  45  41 CALM      30.03R
SEATTLE WA     PTCLDY    65  56  72 N8        30.10R
$$

*** WEATHER ACROSS MANITOBA...SASKATCHEWAN AND ONTARIO ***
                ***ONTARIO***

CITY           SKY/WX    TMP DP  RH WIND       PRES   REMARKS
GERALDTON      LGT RAIN  54  54 100 SW8       29.54S FOG
THUNDER BAY    PTCLDY    59  57  94 SW3       29.58S
SIOUX LOOKOUT  LGT RAIN  61  61 100 NW3       29.53F FOG
TORONTO        PTCLDY    54  48  82 CALM      30.08F
BIG TROUT LK   CLOUDY    46  43  87 N5        29.55R
PICKLE LAKE    NOT AVBL
DRYDEN         LGT RAIN  59  59 100 W10       29.54S
KENORA         CLOUDY    61  59  94 NW10      29.57S FOG
$$
                *** MANITOBA***

CITY           SKY/WX    TMP DP  RH WIND       PRES   REMARKS
BRANDON        CLOUDY    55  54  94 E5        29.74R
DAUPHIN        CLOUDY    54  52  94 S2        29.72S FOG
ISLAND LAKE    CLOUDY    46  45  93 N8        29.64R
PILOT MOUND    NOT AVBL
THE PAS        CLOUDY    52  48  87 SE5       29.64S
THOMPSON       MOCLDY    30  30 100 CALM      29.65S
WINNIPEG       CLOUDY    55  52  88 N8        29.70R
LYNN LAKE      CLOUDY    41  37  87 E5        29.62S
GILLAM         MOCLDY    45  37  76 NW12      29.62S
$$
                ***SASKATCHEWAN***

CITY           SKY/WX    TMP DP  RH WIND       PRES   REMARKS
ESTEVAN        CLEAR     54  50  87 W6        29.80R
KINDERSLEY     TSTM      55  50  82 NE12G21   29.80F
LLOYDMINSTER   PTCLDY    54  43  66 W12       29.73R
PRINCE ALBERT  MOCLDY    52  48  87 VRB2      29.66S
REGINA         PTCLDY    52  48  87 SW8       29.77R
YORKTON        CLEAR     50  48  93 CALM      29.72R
N. BATTLEFORD  PTCLDY    57  48  72 W8        29.75R
LA RONGE       PTCLDY    55  52  88 S6        29.55F
SASKATOON      MOCLDY    57  48  72 W6        29.75R
SWIFT CURRENT  PTCLDY    57  46  67 SW7       29.82R
$$
NOTE: THESE ARE AUTOMATED STATIONS WITH LIMITED QUALITY CONTROL
      "FAIR" INDICATES FEW OR NO CLOUDS BELOW 12,000 FEET WITH NO
      SIGNIFICANT WEATHER AND/OR OBSTRUCTIONS TO VISIBILITY.
      SKY/WX - SKY CONDITION AND SIGNIFICANT WEATHER.
      TMP - AIR TEMPERATURE.    DP   - DEWPOINT TEMPERATURE.
      RH  - RELATIVE HUMIDITY.  PRES - PRESSURE.
      HX  - HEAT INDEX.         WCI  - WIND CHILL INDEX.
$


USA.gov is the U.S. government's official web portal to all federal, state and local government web resources and services.